OBJECT J

基本信息
目录编号:
51832
目录名称:
OBJECT J
国际标识:
2022-019J
轨道中心:
EARTH
物体状态:
在轨
发射日期:
2022-02-27 UTC
国别:
中国 (CN)
轨道信息
数据来源: 国际轨道数据
星历时间: 2026-09-04T12:10:07+0800
半长轴: 6881.777km
偏心率: 0.0007512
轨道倾角: 97.336°
近地点辐角: 322.767°
升交点赤经: 307.928°
平近点角: 37.304°
近地点: 498.47km
远地点: 508.81km
周期: 94.691分钟
每日圈数: 15.207293
详细信息
发射场:
WSC
轨道高度:
LEO
数据来源:
AOE Working Group
参考系:
TEME
时间系统:
UTC
历元类型:
SGP4
2D轨道图
3D轨道图
轨道高度分析图
轨道倾角分析图
轨道综合分析图
查看轨道综合分析图